Location: Foligno
(42.9600°N, 12.7050°E)
Time: 10:53:15
(UTC+02:00)

ISS - Pass Details

Date: 08 May 2021
Orbit: 417 x 422 km, 51.6° (Epoch: 15 May)

Event Time Altitude Azimuth Distance (km) Brightness Sun altitude
Exits shadow 04:22:20 - 300° (WNW) 2,176 -0.3 -14.9°
Reaches altitude 10° 04:24:21 10° 317° (NW) 1,505 -1.0 -14.6°
Maximum altitude 04:26:49 19° 4° (N) 1,089 -1.1 -14.3°
Drops below altitude 10° 04:29:18 10° 51° (NE) 1,506 0.5 -13.9°
Sets 04:31:50 0° 70° (ENE) 2,371 1.5 -13.6°
